{"data":{"norad_id":43681,"intl_designator":"2018-084K","name":"AUTCUBE 2","alt_names":[],"object_type":"PAYLOAD","status":"ACTIVE","operator":null,"country":"JPN","launch_date":"2018-10-29","launch_site_code":"TANSC","launch_vehicle":null,"mission":null,"orbit_class":"UNKNOWN","rcs_meters":null,"size_class":null,"mass_kg":null,"dimensions":null,"purposes":[],"wikipedia_slug":null,"has_3d_model":false,"image_url":null,"decayed_at":null,"tle_current":{"epoch":"2026-05-25T00:53:34.855872Z","epoch_age_seconds":75100,"freshness":"FRESH","line1":"1 43681U 18084K   26145.03720898  .00003376  00000+0  21249-3 0  9997","line2":"2 43681  98.0737 349.9855 0010348 117.6359 242.5921 15.09904586413436","mean_motion":15.09904586,"eccentricity":0.0010348,"inclination_deg":98.0737,"raan_deg":349.9855,"arg_perigee_deg":117.6359,"mean_anomaly_deg":242.5921,"bstar":0.00021249,"rev_number":41343,"period_min":95.370264674459,"perigee_km":529.33603017254,"apogee_km":543.6465448764,"semimajor_km":6914.6282875245,"source":"CELESTRAK","updated_at":"2026-05-25T13:37:55.867778Z"}}}